QFA580 YBBN-YBHM

Flight info

Callsign QFA580
Flight time 1h 22m
Altitude 32000
Route BN Q67 OVRON
Aircraft B738/M-SDE2E3FGHIRWXY/LB1

Departure

Time 2026-04-15 20:39
Airport Brisbane International Airport (YBBN)

Arrival

Time 2026-04-15 22:01
Airport Hamilton Island Airport (YBHM)
Time Latitude Longitude Altitude Speed Heading
2026-04-15 20:13 -27.38366 153.12259 20 ft 0 kts 324°
2026-04-15 20:29 -27.38368 153.12260 20 ft 3 kts 324°
2026-04-15 20:29 -27.38389 153.12276 20 ft 4 kts 324°
2026-04-15 20:29 -27.38408 153.12290 21 ft 4 kts 337°
2026-04-15 20:29 -27.38428 153.12302 20 ft 4 kts 302°
2026-04-15 20:30 -27.38433 153.12325 20 ft 3 kts 271°
2026-04-15 20:30 -27.38433 153.12346 20 ft 0 kts 271°
2026-04-15 20:32 -27.38434 153.12345 20 ft 0 kts 268°
2026-04-15 20:32 -27.38441 153.12336 20 ft 3 kts 215°
2026-04-15 20:32 -27.38462 153.12348 20 ft 4 kts 112°
2026-04-15 20:32 -27.38453 153.12385 20 ft 6 kts 65°
2026-04-15 20:33 -27.38450 153.12432 20 ft 7 kts 111°
2026-04-15 20:33 -27.38458 153.12486 20 ft 8 kts 72°
2026-04-15 20:33 -27.38413 153.12525 22 ft 9 kts 27°
2026-04-15 20:33 -27.38349 153.12561 23 ft 11 kts 27°
2026-04-15 20:34 -27.38277 153.12602 20 ft 12 kts 27°
2026-04-15 20:34 -27.38197 153.12648 22 ft 13 kts 27°
2026-04-15 20:34 -27.38111 153.12698 20 ft 15 kts 27°
2026-04-15 20:34 -27.38017 153.12751 22 ft 16 kts 26°
2026-04-15 20:35 -27.37916 153.12808 20 ft 17 kts 26°
2026-04-15 20:35 -27.37814 153.12867 20 ft 16 kts 27°
2026-04-15 20:35 -27.37716 153.12924 20 ft 16 kts 27°
2026-04-15 20:35 -27.37621 153.12978 22 ft 15 kts 27°
2026-04-15 20:36 -27.37532 153.13029 21 ft 14 kts 27°
2026-04-15 20:36 -27.37445 153.13079 20 ft 14 kts 27°
2026-04-15 20:36 -27.37358 153.13128 21 ft 14 kts 26°
2026-04-15 20:36 -27.37276 153.13179 20 ft 12 kts 46°
2026-04-15 20:37 -27.37288 153.13268 20 ft 12 kts 117°
2026-04-15 20:37 -27.37321 153.13340 22 ft 7 kts 117°
2026-04-15 20:37 -27.37348 153.13385 21 ft 7 kts 133°
2026-04-15 20:37 -27.37386 153.13419 23 ft 7 kts 151°
2026-04-15 20:38 -27.37435 153.13433 22 ft 8 kts 179°
2026-04-15 20:38 -27.37497 153.13414 22 ft 14 kts 206°
2026-04-15 20:38 -27.37766 153.13259 21 ft 74 kts 207°
2026-04-15 20:38 -27.38397 153.12900 21 ft 126 kts 207°
2026-04-15 20:39 -27.39304 153.12380 66 ft 162 kts 207°
2026-04-15 20:39 -27.40319 153.11792 549 ft 165 kts 207°
2026-04-15 20:39 -27.41372 153.11202 1045 ft 171 kts 207°
2026-04-15 20:39 -27.42407 153.10611 1702 ft 164 kts 210°
2026-04-15 20:40 -27.43426 153.10002 2213 ft 169 kts 210°
2026-04-15 20:40 -27.44538 153.09346 2458 ft 192 kts 209°
2026-04-15 20:40 -27.45795 153.08614 2668 ft 213 kts 209°
2026-04-15 20:40 -27.47174 153.07812 2814 ft 232 kts 211°
2026-04-15 20:41 -27.48330 153.06540 2975 ft 245 kts 247°
2026-04-15 20:41 -27.48575 153.04637 3483 ft 250 kts 274°
2026-04-15 20:41 -27.48450 153.02678 4120 ft 252 kts 274°
2026-04-15 20:41 -27.48333 153.00688 4702 ft 257 kts 273°
2026-04-15 20:42 -27.48224 152.98658 5285 ft 262 kts 273°
2026-04-15 20:42 -27.48120 152.96595 5913 ft 265 kts 273°
2026-04-15 20:42 -27.48018 152.94513 6568 ft 267 kts 273°
2026-04-15 20:42 -27.47624 152.92470 7134 ft 271 kts 299°
2026-04-15 20:43 -27.46351 152.90931 7780 ft 271 kts 329°
2026-04-15 20:43 -27.44590 152.90208 8461 ft 272 kts 352°
2026-04-15 20:43 -27.42698 152.90165 9097 ft 276 kts 13°
2026-04-15 20:43 -27.40973 152.91128 9631 ft 286 kts 40°
2026-04-15 20:44 -27.39675 152.92843 10118 ft 295 kts 53°
2026-04-15 20:44 -27.38458 152.94795 10322 ft 316 kts 54°
2026-04-15 20:44 -27.37172 152.96906 10479 ft 337 kts 54°
2026-04-15 20:44 -27.35806 152.99139 10617 ft 355 kts 54°
2026-04-15 20:45 -27.34367 153.01466 10879 ft 368 kts 54°
2026-04-15 20:45 -27.32885 153.03842 11337 ft 373 kts 54°
2026-04-15 20:45 -27.31378 153.06244 11875 ft 377 kts 54°
2026-04-15 20:45 -27.29856 153.08666 12382 ft 382 kts 53°
2026-04-15 20:46 -27.28114 153.10938 12863 ft 386 kts 41°
2026-04-15 20:46 -27.26064 153.12897 13401 ft 389 kts 38°
2026-04-15 20:46 -27.23954 153.14837 13921 ft 395 kts 38°
2026-04-15 20:46 -27.21840 153.16780 14375 ft 399 kts 34°
2026-04-15 20:47 -27.19367 153.18158 14836 ft 397 kts 14°
2026-04-15 20:47 -27.16708 153.19022 15406 ft 399 kts 13°
2026-04-15 20:47 -27.14032 153.19915 15912 ft 403 kts 14°
2026-04-15 20:47 -27.11336 153.20842 16401 ft 408 kts 14°
2026-04-15 20:48 -27.08612 153.21798 16885 ft 412 kts 14°
2026-04-15 20:48 -27.05867 153.22768 17376 ft 416 kts 14°
2026-04-15 20:48 -27.03094 153.23730 17858 ft 418 kts 11°
2026-04-15 20:48 -27.00228 153.24150 18313 ft 415 kts 357°
2026-04-15 20:49 -26.97338 153.24173 18780 ft 416 kts 355°
2026-04-15 20:49 -26.94425 153.24170 19192 ft 419 kts 355°
2026-04-15 20:49 -26.91497 153.24181 19600 ft 423 kts 355°
2026-04-15 20:49 -26.88579 153.24214 20028 ft 425 kts 355°
2026-04-15 20:50 -26.85608 153.24266 20447 ft 428 kts 355°
2026-04-15 20:50 -26.82615 153.24329 20833 ft 431 kts 355°
2026-04-15 20:50 -26.79604 153.24395 21238 ft 434 kts 355°
2026-04-15 20:50 -26.76583 153.24463 21643 ft 436 kts 355°
2026-04-15 20:51 -26.73537 153.24530 22051 ft 438 kts 355°
2026-04-15 20:51 -26.70483 153.24594 22422 ft 440 kts 354°
2026-04-15 20:51 -26.67473 153.24246 22751 ft 430 kts 338°
2026-04-15 20:51 -26.64634 153.23239 23178 ft 428 kts 335°
2026-04-15 20:52 -26.61797 153.22194 23569 ft 430 kts 335°
2026-04-15 20:52 -26.58944 153.21157 23900 ft 432 kts 335°
2026-04-15 20:52 -26.56067 153.20133 24213 ft 434 kts 335°
2026-04-15 20:52 -26.54156 153.19462 24414 ft 434 kts 336°
2026-04-15 20:53 -26.51264 153.18457 24762 ft 435 kts 336°
2026-04-15 20:53 -26.47432 153.17133 25164 ft 436 kts 336°
2026-04-15 20:53 -26.44525 153.16131 25452 ft 437 kts 336°
2026-04-15 20:53 -26.41607 153.15126 25737 ft 439 kts 335°
2026-04-15 20:54 -26.39672 153.14458 25925 ft 440 kts 335°
2026-04-15 20:54 -26.36745 153.13448 26201 ft 441 kts 335°
2026-04-15 20:54 -26.33804 153.12435 26472 ft 442 kts 335°
2026-04-15 20:54 -26.30862 153.11421 26755 ft 443 kts 335°
2026-04-15 20:55 -26.28020 153.10175 27006 ft 436 kts 327°
2026-04-15 20:55 -26.25412 153.08496 27241 ft 429 kts 318°
2026-04-15 20:55 -26.23024 153.06513 27458 ft 429 kts 317°
2026-04-15 20:55 -26.20637 153.04507 27673 ft 431 kts 317°
2026-04-15 20:56 -26.18232 153.02506 27917 ft 432 kts 317°
2026-04-15 20:56 -26.15813 153.00515 28162 ft 433 kts 317°
2026-04-15 20:56 -26.13384 152.98529 28390 ft 434 kts 317°
2026-04-15 20:56 -26.10948 152.96543 28605 ft 435 kts 317°
2026-04-15 20:57 -26.08495 152.94556 28812 ft 436 kts 318°
2026-04-15 20:57 -26.06031 152.92578 29018 ft 437 kts 318°
2026-04-15 20:57 -26.03560 152.90601 29216 ft 438 kts 318°
2026-04-15 20:57 -26.01081 152.88618 29453 ft 438 kts 318°
2026-04-15 20:58 -25.98610 152.86642 29775 ft 436 kts 318°
2026-04-15 20:58 -25.96187 152.84704 30132 ft 434 kts 317°
2026-04-15 20:58 -25.93739 152.82747 30426 ft 432 kts 317°
2026-04-15 20:58 -25.91297 152.80792 30588 ft 433 kts 318°
2026-04-15 20:59 -25.88845 152.78827 30719 ft 435 kts 318°
2026-04-15 20:59 -25.86392 152.76862 30932 ft 435 kts 318°
2026-04-15 20:59 -25.83945 152.74904 31187 ft 433 kts 317°
2026-04-15 20:59 -25.81502 152.72952 31431 ft 432 kts 317°
2026-04-15 21:00 -25.79062 152.71003 31659 ft 432 kts 317°
2026-04-15 21:00 -25.76622 152.69055 31885 ft 432 kts 317°
2026-04-15 21:00 -25.74186 152.67111 32121 ft 431 kts 317°
2026-04-15 21:00 -25.71749 152.65167 32345 ft 430 kts 317°
2026-04-15 21:01 -25.69319 152.63229 32578 ft 430 kts 317°
2026-04-15 21:01 -25.66890 152.61294 32829 ft 429 kts 317°
2026-04-15 21:01 -25.64470 152.59366 33068 ft 429 kts 317°
2026-04-15 21:01 -25.62080 152.57463 33295 ft 429 kts 317°
2026-04-15 21:02 -25.59659 152.55537 33521 ft 428 kts 317°
2026-04-15 21:02 -25.57236 152.53610 33678 ft 430 kts 317°
2026-04-15 21:02 -25.54803 152.51674 33849 ft 431 kts 318°
2026-04-15 21:02 -25.52373 152.49743 34111 ft 429 kts 318°
2026-04-15 21:03 -25.49947 152.47818 34365 ft 428 kts 318°
2026-04-15 21:03 -25.47528 152.45899 34560 ft 428 kts 318°
2026-04-15 21:03 -25.45104 152.43975 34722 ft 429 kts 318°
2026-04-15 21:03 -25.42679 152.42052 34930 ft 428 kts 318°
2026-04-15 21:04 -25.40259 152.40134 35150 ft 428 kts 318°
2026-04-15 21:04 -25.37835 152.38214 35335 ft 428 kts 317°
2026-04-15 21:04 -25.35418 152.36300 35520 ft 428 kts 317°
2026-04-15 21:04 -25.33000 152.34386 35702 ft 427 kts 318°
2026-04-15 21:05 -25.30583 152.32475 35917 ft 427 kts 317°
2026-04-15 21:05 -25.28165 152.30563 36101 ft 427 kts 317°
2026-04-15 21:05 -25.25748 152.28653 36252 ft 427 kts 318°
2026-04-15 21:05 -25.23330 152.26741 36383 ft 428 kts 318°
2026-04-15 21:06 -25.20907 152.24828 36550 ft 428 kts 318°
2026-04-15 21:06 -25.18516 152.22941 36757 ft 427 kts 318°
2026-04-15 21:06 -25.16097 152.21033 36947 ft 427 kts 318°
2026-04-15 21:06 -25.13676 152.19124 37123 ft 427 kts 318°
2026-04-15 21:07 -25.11256 152.17215 37283 ft 427 kts 318°
2026-04-15 21:07 -25.08841 152.15311 37457 ft 427 kts 318°
2026-04-15 21:07 -25.06421 152.13405 37625 ft 426 kts 318°
2026-04-15 21:07 -25.04007 152.11507 37761 ft 427 kts 318°
2026-04-15 21:08 -25.01586 152.09606 37920 ft 426 kts 318°
2026-04-15 21:08 -24.99170 152.07715 38087 ft 426 kts 318°
2026-04-15 21:08 -24.96751 152.05825 38161 ft 427 kts 318°
2026-04-15 21:09 -24.91917 152.02046 38174 ft 428 kts 318°
2026-04-15 21:09 -24.87063 151.98255 38164 ft 426 kts 318°
2026-04-15 21:10 -24.82230 151.94481 38166 ft 425 kts 318°
2026-04-15 21:10 -24.77418 151.90724 38168 ft 424 kts 318°
2026-04-15 21:11 -24.72646 151.87003 38169 ft 423 kts 318°
2026-04-15 21:11 -24.67844 151.83261 38168 ft 422 kts 318°
2026-04-15 21:12 -24.63044 151.79522 38174 ft 423 kts 318°
2026-04-15 21:12 -24.58243 151.75788 38160 ft 423 kts 319°
2026-04-15 21:13 -24.53436 151.72053 38163 ft 424 kts 319°
2026-04-15 21:13 -24.48611 151.68309 38181 ft 425 kts 319°
2026-04-15 21:14 -24.43769 151.64554 38170 ft 427 kts 319°
2026-04-15 21:14 -24.38905 151.60786 38174 ft 428 kts 319°
2026-04-15 21:15 -24.34028 151.57013 38163 ft 430 kts 319°
2026-04-15 21:15 -24.29130 151.53225 38166 ft 430 kts 319°
2026-04-15 21:16 -24.24264 151.49466 38162 ft 431 kts 319°
2026-04-15 21:16 -24.19365 151.45686 38165 ft 431 kts 319°
2026-04-15 21:17 -24.14449 151.41896 38157 ft 432 kts 319°
2026-04-15 21:17 -24.09531 151.38107 38165 ft 432 kts 319°
2026-04-15 21:18 -24.04619 151.34327 38150 ft 431 kts 319°
2026-04-15 21:18 -23.99722 151.30562 38165 ft 430 kts 320°
2026-04-15 21:19 -23.94831 151.26802 38141 ft 429 kts 320°
2026-04-15 21:19 -23.89980 151.23074 38151 ft 428 kts 320°
2026-04-15 21:20 -23.85053 151.19402 38151 ft 430 kts 323°
2026-04-15 21:20 -23.79891 151.16068 38161 ft 432 kts 324°
2026-04-15 21:21 -23.74677 151.12782 38148 ft 432 kts 324°
2026-04-15 21:21 -23.69480 151.09480 38147 ft 432 kts 324°
2026-04-15 21:22 -23.64287 151.06158 38146 ft 433 kts 324°
2026-04-15 21:22 -23.59084 151.02825 38142 ft 433 kts 324°
2026-04-15 21:23 -23.53883 150.99495 38146 ft 434 kts 324°
2026-04-15 21:23 -23.48704 150.96182 38144 ft 435 kts 324°
2026-04-15 21:24 -23.43476 150.92842 38145 ft 436 kts 324°
2026-04-15 21:24 -23.38239 150.89499 38148 ft 436 kts 324°
2026-04-15 21:25 -23.32991 150.86152 38143 ft 437 kts 324°
2026-04-15 21:25 -23.27739 150.82805 38129 ft 437 kts 325°
2026-04-15 21:26 -23.22482 150.79460 38143 ft 438 kts 325°
2026-04-15 21:26 -23.17218 150.76111 38138 ft 438 kts 325°
2026-04-15 21:27 -23.11987 150.72788 38137 ft 438 kts 325°
2026-04-15 21:27 -23.06719 150.69444 38143 ft 438 kts 325°
2026-04-15 21:28 -23.01446 150.66100 38135 ft 438 kts 325°
2026-04-15 21:28 -22.96181 150.62765 38124 ft 438 kts 325°
2026-04-15 21:29 -22.90924 150.59437 38127 ft 437 kts 326°
2026-04-15 21:29 -22.85708 150.56138 38137 ft 436 kts 326°
2026-04-15 21:30 -22.80457 150.52819 38136 ft 437 kts 326°
2026-04-15 21:30 -22.75210 150.49505 38137 ft 436 kts 326°
2026-04-15 21:31 -22.67328 150.44534 38133 ft 436 kts 326°
2026-04-15 21:32 -22.59486 150.39594 38133 ft 436 kts 326°
2026-04-15 21:32 -22.54231 150.36289 38135 ft 437 kts 326°
2026-04-15 21:33 -22.48959 150.32975 38136 ft 438 kts 326°
2026-04-15 21:33 -22.43685 150.29661 38131 ft 439 kts 326°
2026-04-15 21:34 -22.38395 150.26339 38132 ft 440 kts 326°
2026-04-15 21:34 -22.33087 150.23008 38118 ft 441 kts 326°
2026-04-15 21:35 -22.27808 150.19700 38125 ft 442 kts 326°
2026-04-15 21:35 -22.25140 150.18019 37807 ft 448 kts 326°
2026-04-15 21:35 -22.22454 150.16283 37261 ft 449 kts 326°
2026-04-15 21:35 -22.19788 150.14538 36686 ft 447 kts 325°
2026-04-15 21:36 -22.17136 150.12795 36115 ft 446 kts 325°
2026-04-15 21:36 -22.14489 150.11056 35484 ft 446 kts 325°
2026-04-15 21:36 -22.11841 150.09319 34847 ft 446 kts 325°
2026-04-15 21:36 -22.09187 150.07581 34190 ft 447 kts 325°
2026-04-15 21:37 -22.06534 150.05847 33695 ft 442 kts 325°
2026-04-15 21:37 -22.03913 150.04138 33179 ft 438 kts 325°
2026-04-15 21:37 -22.01316 150.02448 32712 ft 434 kts 325°
2026-04-15 21:37 -21.98743 150.00773 32235 ft 430 kts 325°
2026-04-15 21:38 -21.96190 149.99111 31784 ft 426 kts 325°
2026-04-15 21:38 -21.93700 149.97490 31355 ft 423 kts 325°
2026-04-15 21:38 -21.91190 149.95857 30917 ft 419 kts 326°
2026-04-15 21:38 -21.88705 149.94240 30478 ft 417 kts 326°
2026-04-15 21:39 -21.86227 149.92629 29994 ft 415 kts 326°
2026-04-15 21:39 -21.83769 149.91031 29505 ft 411 kts 326°
2026-04-15 21:39 -21.81331 149.89448 29028 ft 408 kts 326°
2026-04-15 21:39 -21.78914 149.87878 28570 ft 404 kts 326°
2026-04-15 21:40 -21.76516 149.86321 28122 ft 400 kts 326°
2026-04-15 21:40 -21.74141 149.84781 27682 ft 397 kts 326°
2026-04-15 21:40 -21.71785 149.83253 27246 ft 394 kts 326°
2026-04-15 21:40 -21.69444 149.81735 26819 ft 391 kts 326°
2026-04-15 21:41 -21.67123 149.80230 26394 ft 388 kts 326°
2026-04-15 21:41 -21.64814 149.78734 25968 ft 386 kts 326°
2026-04-15 21:41 -21.62512 149.77242 25550 ft 384 kts 326°
2026-04-15 21:41 -21.60224 149.75761 25104 ft 383 kts 326°
2026-04-15 21:42 -21.57943 149.74285 24668 ft 382 kts 327°
2026-04-15 21:42 -21.55674 149.72817 24247 ft 380 kts 327°
2026-04-15 21:42 -21.53410 149.71354 23813 ft 380 kts 327°
2026-04-15 21:42 -21.51912 149.70385 23482 ft 379 kts 327°
2026-04-15 21:43 -21.49658 149.68928 23023 ft 377 kts 327°
2026-04-15 21:43 -21.47413 149.67477 22575 ft 374 kts 327°
2026-04-15 21:43 -21.45191 149.66043 22149 ft 372 kts 327°
2026-04-15 21:43 -21.42980 149.64616 21731 ft 369 kts 327°
2026-04-15 21:44 -21.40785 149.63199 21326 ft 367 kts 327°
2026-04-15 21:44 -21.38604 149.61793 20913 ft 365 kts 327°
2026-04-15 21:44 -21.36435 149.60394 20506 ft 363 kts 327°
2026-04-15 21:44 -21.34270 149.58997 20093 ft 362 kts 327°
2026-04-15 21:45 -21.32117 149.57610 19684 ft 360 kts 327°
2026-04-15 21:45 -21.29973 149.56229 19280 ft 359 kts 328°
2026-04-15 21:45 -21.27832 149.54849 18862 ft 358 kts 328°
2026-04-15 21:45 -21.25699 149.53475 18450 ft 357 kts 328°
2026-04-15 21:46 -21.23578 149.52107 18005 ft 355 kts 328°
2026-04-15 21:46 -21.21463 149.50748 17576 ft 353 kts 328°
2026-04-15 21:46 -21.19361 149.49400 17164 ft 351 kts 328°
2026-04-15 21:46 -21.17274 149.48059 16756 ft 349 kts 327°
2026-04-15 21:47 -21.15222 149.46739 16357 ft 348 kts 328°
2026-04-15 21:47 -21.13154 149.45409 15957 ft 346 kts 327°
2026-04-15 21:47 -21.11088 149.44081 15551 ft 346 kts 327°
2026-04-15 21:47 -21.09022 149.42753 15138 ft 346 kts 327°
2026-04-15 21:48 -21.06956 149.41426 14723 ft 346 kts 327°
2026-04-15 21:48 -21.04883 149.40096 14317 ft 346 kts 328°
2026-04-15 21:48 -21.02817 149.38771 13910 ft 347 kts 328°
2026-04-15 21:48 -21.00749 149.37445 13487 ft 345 kts 327°
2026-04-15 21:49 -20.98694 149.36128 13089 ft 343 kts 327°
2026-04-15 21:49 -20.96650 149.34819 12683 ft 341 kts 326°
2026-04-15 21:49 -20.94617 149.33517 12286 ft 339 kts 327°
2026-04-15 21:49 -20.92597 149.32224 11880 ft 338 kts 327°
2026-04-15 21:50 -20.90577 149.30932 11474 ft 337 kts 327°
2026-04-15 21:50 -20.88570 149.29647 11072 ft 336 kts 327°
2026-04-15 21:50 -20.86595 149.28384 10731 ft 333 kts 327°
2026-04-15 21:50 -20.84634 149.27130 10550 ft 325 kts 327°
2026-04-15 21:51 -20.82722 149.25908 10414 ft 315 kts 327°
2026-04-15 21:51 -20.80859 149.24718 10271 ft 308 kts 327°
2026-04-15 21:51 -20.79035 149.23554 10045 ft 303 kts 327°
2026-04-15 21:51 -20.77243 149.22409 9936 ft 294 kts 327°
2026-04-15 21:52 -20.75493 149.21290 9468 ft 298 kts 327°
2026-04-15 21:52 -20.73727 149.20160 9119 ft 298 kts 328°
2026-04-15 21:52 -20.71942 149.19017 8806 ft 297 kts 328°
2026-04-15 21:52 -20.70175 149.17889 8486 ft 296 kts 329°
2026-04-15 21:53 -20.68411 149.16763 8175 ft 294 kts 328°
2026-04-15 21:53 -20.66656 149.15643 7869 ft 293 kts 329°
2026-04-15 21:53 -20.64909 149.14529 7556 ft 291 kts 329°
2026-04-15 21:53 -20.63196 149.13436 7240 ft 290 kts 329°
2026-04-15 21:54 -20.61480 149.12341 6921 ft 284 kts 330°
2026-04-15 21:54 -20.59795 149.11266 6594 ft 279 kts 330°
2026-04-15 21:54 -20.58150 149.10218 6281 ft 273 kts 330°
2026-04-15 21:54 -20.56532 149.09187 5953 ft 269 kts 331°
2026-04-15 21:55 -20.54944 149.08176 5695 ft 263 kts 330°
2026-04-15 21:55 -20.53435 149.07112 5392 ft 259 kts 322°
2026-04-15 21:55 -20.52128 149.05809 5150 ft 256 kts 317°
2026-04-15 21:55 -20.50853 149.04449 4933 ft 264 kts 316°
2026-04-15 21:56 -20.49543 149.03057 4764 ft 268 kts 317°
2026-04-15 21:56 -20.48226 149.01680 4640 ft 265 kts 317°
2026-04-15 21:56 -20.46921 149.00328 4506 ft 258 kts 318°
2026-04-15 21:56 -20.45642 148.99019 4382 ft 252 kts 318°
2026-04-15 21:57 -20.44399 148.97747 4252 ft 245 kts 318°
2026-04-15 21:57 -20.43171 148.96498 4015 ft 243 kts 318°
2026-04-15 21:57 -20.41939 148.95245 3719 ft 246 kts 317°
2026-04-15 21:57 -20.40699 148.93979 3428 ft 249 kts 317°
2026-04-15 21:58 -20.39445 148.92696 3111 ft 249 kts 318°
2026-04-15 21:58 -20.38215 148.91441 2997 ft 236 kts 317°
2026-04-15 21:58 -20.37031 148.90236 2500 ft 236 kts 318°
2026-04-15 21:58 -20.35882 148.89066 2289 ft 220 kts 319°
2026-04-15 21:59 -20.34760 148.88076 2145 ft 200 kts 336°
2026-04-15 21:59 -20.33495 148.87899 1816 ft 177 kts 25°
2026-04-15 21:59 -20.32698 148.88664 1648 ft 153 kts 63°
2026-04-15 21:59 -20.32164 148.89632 1517 ft 141 kts 68°
2026-04-15 22:00 -20.31922 148.90606 1279 ft 134 kts 95°
2026-04-15 22:00 -20.32057 148.91566 1105 ft 131 kts 103°
2026-04-15 22:00 -20.32408 148.92455 868 ft 132 kts 129°
2026-04-15 22:00 -20.33152 148.93064 629 ft 139 kts 143°
2026-04-15 22:01 -20.33920 148.93715 400 ft 142 kts 141°
2026-04-15 22:01 -20.34728 148.94343 178 ft 144 kts 140°
2026-04-15 22:01 -20.35515 148.94977 25 ft 135 kts 142°
2026-04-15 22:01 -20.35998 148.95368 19 ft 44 kts 143°
2026-04-15 22:02 -20.36171 148.95505 20 ft 25 kts 143°
2026-04-15 22:02 -20.36288 148.95599 21 ft 18 kts 142°
2026-04-15 22:02 -20.36362 148.95638 22 ft 9 kts 186°
2026-04-15 22:02 -20.36411 148.95657 22 ft 8 kts 104°
2026-04-15 22:03 -20.36372 148.95668 24 ft 8 kts 317°
2026-04-15 22:03 -20.36327 148.95630 21 ft 9 kts 323°
2026-04-15 22:03 -20.36268 148.95583 22 ft 12 kts 323°
2026-04-15 22:03 -20.36193 148.95523 20 ft 15 kts 323°
2026-04-15 22:04 -20.36107 148.95454 20 ft 17 kts 322°
2026-04-15 22:04 -20.36009 148.95375 19 ft 19 kts 323°
2026-04-15 22:04 -20.35901 148.95289 21 ft 20 kts 323°
2026-04-15 22:04 -20.35789 148.95200 22 ft 21 kts 323°
2026-04-15 22:05 -20.35669 148.95104 22 ft 22 kts 322°
2026-04-15 22:05 -20.35549 148.95007 24 ft 21 kts 323°
2026-04-15 22:05 -20.35445 148.94928 22 ft 13 kts 343°
2026-04-15 22:05 -20.35384 148.94972 21 ft 7 kts 53°
2026-04-15 22:06 -20.35354 148.95005 20 ft 6 kts 25°
2026-04-15 22:06 -20.35327 148.95011 19 ft 4 kts 35°
2026-04-15 22:06 -20.35304 148.95022 21 ft 4 kts 17°
2026-04-15 22:06 -20.35290 148.95023 19 ft 0 kts 360°